Location: Killam
(52.7910°N, 111.8608°W)
Time: 21:42:08
(UTC+00:00)

Vanguard 1 - All Passes

Search period start: 17 February 2026 00:00
Search period end: 27 February 2026 00:00
Orbit: 652 x 3820 km, 34.3° (Epoch: 15 February)

Date Brightness Start Highest point End Pass type
(mag) Time Alt. Az. Time Alt. Az. Time Alt. Az.
17 Feb - 01:56:28 10° WSW 02:11:15 42° S 02:31:34 10° SE visible
17 Feb - 04:18:07 10° W 04:34:08 32° SSW 04:52:30 10° SSE visible
17 Feb - 06:46:38 10° WSW 06:55:28 14° SW 07:04:22 10° SSW visible
17 Feb - 21:40:34 10° S 21:48:12 20° SE 21:58:53 10° E daylight
17 Feb - 23:56:20 10° SW 00:08:05 38° SSE 00:26:07 10° ESE daylight
18 Feb - 02:15:36 10° WSW 02:30:21 40° S 02:50:24 10° SE visible
18 Feb - 04:37:54 10° W 04:53:00 28° SSW 05:10:07 10° SSE visible
18 Feb - 21:58:23 10° SSW 22:06:44 24° SE 22:18:58 10° E daylight
19 Feb - 00:15:07 10° SW 00:27:04 39° S 00:45:26 10° ESE daylight
19 Feb - 02:34:50 10° WSW 02:49:27 38° SSW 03:09:01 10° SE visible
19 Feb - 04:58:03 10° W 05:11:48 23° SW 05:27:10 10° S visible
19 Feb - 22:16:34 10° SSW 22:25:22 28° SSE 22:38:46 10° ESE daylight
20 Feb - 00:34:01 10° WSW 00:46:06 39° S 01:04:38 10° ESE daylight
20 Feb - 02:54:12 10° WSW 03:08:31 34° SSW 03:27:22 10° SE visible
20 Feb - 05:18:48 10° WSW 05:30:32 18° SW 05:43:24 10° S visible
20 Feb - 20:22:28 10° SSE 20:25:31 12° SE 20:29:02 10° ESE daylight
20 Feb - 22:34:59 10° SSW 22:44:06 31° SSE 22:58:24 10° ESE daylight
21 Feb - 00:53:01 10° WSW 01:05:10 39° S 01:23:40 10° ESE visible
21 Feb - 03:13:42 10° WSW 03:27:33 30° SSW 03:45:23 10° SSE visible
21 Feb - 05:40:54 10° WSW 05:49:11 14° SW 05:58:02 10° SSW visible
21 Feb - 20:38:51 10° SSE 20:43:54 15° SE 20:50:28 10° ESE daylight
21 Feb - 22:53:35 10° SW 23:02:56 33° SSE 23:17:52 10° ESE daylight
22 Feb - 01:12:06 10° WSW 01:24:17 37° S 01:42:31 10° SE visible
22 Feb - 03:33:27 10° WSW 03:46:32 26° SSW 04:02:58 10° SSE visible
22 Feb - 20:56:24 10° S 21:02:25 19° SE 21:10:49 10° ESE daylight
22 Feb - 23:12:20 10° SW 23:21:52 34° SSE 23:37:12 10° ESE daylight
23 Feb - 01:31:19 10° WSW 01:43:23 35° SSW 02:01:09 10° SE visible
23 Feb - 03:53:34 10° WSW 04:05:28 22° SW 04:19:57 10° S visible
23 Feb - 21:14:26 10° SSW 21:21:01 22° SSE 21:30:43 10° ESE daylight
23 Feb - 23:31:12 10° SW 23:40:52 35° S 23:56:24 10° ESE daylight
24 Feb - 01:50:38 10° WSW 02:02:29 31° SSW 02:19:30 10° SE visible
24 Feb - 04:14:22 10° WSW 04:24:21 17° SW 04:36:02 10° S visible
24 Feb - 21:32:46 10° SSW 21:39:44 25° SSE 21:50:23 10° ESE daylight
24 Feb - 23:50:10 10° WSW 23:59:55 34° S 00:15:27 10° SE daylight
25 Feb - 02:10:08 10° WSW 02:21:34 28° SSW 02:37:30 10° SSE visible
25 Feb - 04:36:46 10° WSW 04:43:10 12° SW 04:50:13 10° SSW visible
25 Feb - 19:39:16 10° SE 19:40:09 10° SE 19:41:03 10° SE daylight
25 Feb - 21:51:19 10° SW 21:58:32 27° SSE 22:09:52 10° ESE daylight
26 Feb - 00:09:15 10° WSW 00:18:59 33° S 00:34:19 10° SE daylight
26 Feb - 02:29:55 10° WSW 02:40:38 23° SSW 02:55:02 10° SSE visible
26 Feb - 19:55:07 10° SSE 19:58:39 13° SE 20:03:02 10° ESE daylight
26 Feb - 22:10:01 10° SW 22:17:26 29° SSE 22:29:12 10° ESE daylight
